This demonstration page uses our WeatherBlox Daily Observations layout. Learn more.

Left ArrowRight Arrow

41.86663, -103.66717

Hourly Observations for March 30, 2020

Temp ( °F °C ) Dew Point ( °F °C ) Humidity (%) Winds ( mph kmh ) Pressure ( in mb ) Visibility ( mi km ) Precip ( " mm )
12:53 am 00:53 Clear 34 1.1 27 -2.8 76 76 E 8 13 30.03 1017 10 16 N/A
1:53 am 01:53 Partly Cloudy 33 0.6 27 -2.8 78 78 E 9 15 30.02 1017 10 16 N/A
2:53 am 02:53 Cloudy 36 2.2 29 -1.7 76 76 E 7 11 30.00 1016 10 16 N/A
3:53 am 03:53 Mostly Cloudy 37 2.8 28 -2.2 70 70 ENE 6 9 29.99 1016 10 16 N/A
4:53 am 04:53 Mostly Cloudy 34 1.1 27 -2.8 76 76 ENE 7 11 29.98 1015 10 16 N/A
5:53 am 05:53 Cloudy 33 0.6 27 -2.8 78 78 NW 5 7 29.99 1016 10 16 N/A
6:53 am 06:53 Partly Cloudy 31 -0.6 27 -2.8 85 85 NNW 6 9 30.01 1016 10 16 N/A
7:53 am 07:53 Cloudy 38 3.3 30 -1.1 73 73 N N/A 30.00 1016 10 16 N/A
8:53 am 08:53 Partly Cloudy 42 5.6 31 -0.6 65 65 ESE 3 6 30.03 1017 10 16 N/A
9:53 am 09:53 Cloudy 44 6.7 31 -0.6 60 60 SE 3 6 30.02 1017 10 16 N/A
10:53 am 10:53 Mostly Cloudy 45 7.2 31 -0.6 58 58 VRB 3 6 30.03 1017 10 16 N/A
11:53 am 11:53 Mostly Sunny 51 10.6 32 undefined 48 48 VRB 3 6 30.01 1016 10 16 N/A
12:53 pm 12:53 Sunny 57 13.9 29 -1.7 34 34 N N/A 29.97 1015 10 16 N/A
1:53 pm 13:53 Sunny 58 14.4 28 -2.2 32 32 N N/A 29.94 1014 10 16 N/A
2:53 pm 14:53 Mostly Sunny 61 16.1 31 -0.6 32 32 NW 6 9 29.91 1013 10 16 N/A
3:53 pm 15:53 Mostly Cloudy 60 15.6 30 -1.1 32 32 W 5 7 29.90 1013 10 16 N/A
4:27 pm 16:27 Mostly Sunny 58 14.4 36 2.2 44 44 SE 14 22 29.82 1010 10 16 N/A
4:53 pm 16:53 Sunny 59 15 36 2.2 42 42 SE 12 19 29.91 1013 10 16 N/A
5:53 pm 17:53 Cloudy with Light Rain 55 12.8 36 2.2 49 49 SSW 9 15 29.96 1015 9 14 0.00 0.00
6:36 pm 18:36 Mostly Cloudy with Light Rain 51 10.6 41 5 69 69 E 15 24 29.92 1013 10 16 0.00 0.00
6:53 pm 18:53 Mostly Sunny 50 10 40 4.4 68 68 E 10 17 29.99 1016 10 16 0.00 0.00
7:53 pm 19:53 Clear 44 6.7 39 3.9 83 83 ESE 6 9 30.01 1016 10 16 N/A
8:53 pm 20:53 Partly Cloudy 42 5.6 38 3.3 85 85 E 5 7 30.03 1017 10 16 N/A
9:53 pm 21:53 Mostly Clear 43 6.1 38 3.3 82 82 S 5 7 30.01 1016 10 16 N/A
10:53 pm 22:53 Clear 39 3.9 35 1.7 86 86 ESE 5 7 30.02 1017 10 16 N/A
11:53 pm 23:53 Clear 36 2.2 34 1.1 93 93 E 7 11 30.01 1016 10 16 N/A

Powered by AerisWeather